CST,Max TemperatureF,Mean TemperatureF,Min TemperatureF,Max Dew PointF,MeanDew PointF,Min DewpointF,Max Humidity, Mean Humidity, Min Humidity, Max Sea Level PressureIn, Mean Sea Level PressureIn, Min Sea Level PressureIn, Max VisibilityMiles, Mean VisibilityMiles, Min VisibilityMiles, Max Wind SpeedMPH, Mean Wind SpeedMPH, Max Gust SpeedMPH,PrecipitationIn, CloudCover, Events, WindDirDegrees
2013-11-1,48,41,34,39,35,32,96,79,61,29.99,29.78,29.55,10,10,6,25,13,35,0.00,6,,313
2013-11-2,50,38,26,35,31,26,100,75,50,30.11,30.06,29.99,10,10,9,13,7,16,0.00,0,,277
2013-11-3,54,46,37,35,31,28,76,60,44,29.98,29.74,29.65,10,10,10,37,20,47,0.00,0,,165
2013-11-4,44,35,25,36,30,22,96,75,53,30.18,29.92,29.69,10,10,8,22,10,26,T,2,Rain,272
2013-11-5,37,31,24,25,23,18,85,65,44,30.28,30.19,30.14,10,10,10,10,6,13,0.00,7,,334
2013-11-6,40,31,21,28,24,19,100,74,48,30.22,30.17,30.11,10,10,10,21,9,25,0.00,3,,262
2013-11-7,47,34,21,26,23,20,100,71,42,30.34,30.26,30.18,10,10,10,24,10,28,0.00,0,,274
2013-11-8,49,37,24,41,34,23,96,77,58,30.16,29.74,29.59,10,10,7,33,16,43,T,5,Rain,227
2013-11-9,42,34,26,38,29,23,89,70,51,30.36,30.05,29.76,10,10,10,29,16,38,0.00,4,,305
2013-11-10,41,29,17,30,24,17,100,80,59,30.39,30.25,30.13,10,10,10,28,8,33,0.00,5,,200
2013-11-11,22,14,6,12,6,3,88,70,51,30.84,30.59,30.22,10,10,9,29,15,35,T,3,,4
2013-11-12,33,19,5,16,8,2,88,59,29,30.84,30.68,30.37,10,10,10,18,10,22,0.00,0,,208
2013-11-13,53,37,21,34,28,18,92,70,48,30.32,30.06,29.91,10,10,10,18,10,22,0.00,0,,215
2013-11-14,49,38,27,34,32,27,92,74,56,29.89,29.87,29.84,10,10,10,20,7,25,0.00,1,,262
2013-11-15,54,38,22,37,31,22,100,75,50,29.83,29.68,29.46,10,10,8,25,12,33,0.00,0,,168
2013-11-16,44,38,32,45,39,32,100,87,73,29.46,29.30,29.19,10,4,0,21,8,26,0.00,7,Fog,200
2013-11-17,44,36,28,37,32,24,100,85,70,29.98,29.56,29.34,10,6,0,22,11,30,0.00,6,Fog,315
2013-11-18,39,32,24,25,23,21,88,74,59,30.22,30.15,30.01,10,10,8,22,8,28,0.00,3,,251
2013-11-19,53,42,30,32,28,24,85,62,38,30.12,29.83,29.67,10,10,10,30,18,38,0.00,0,,168
2013-11-20,48,36,23,31,27,20,100,75,49,30.13,29.84,29.67,10,9,6,25,12,31,0.00,3,,68
2013-11-21,23,17,10,20,10,2,88,75,61,30.68,30.44,30.13,10,9,2,29,18,35,0.00,6,Snow,351
2013-11-22,31,17,2,12,6,-2,91,60,28,30.79,30.65,30.53,10,10,5,24,12,31,T,2,Snow,313
2013-11-23,15,6,-4,3,-1,-7,95,71,46,30.97,30.84,30.66,10,9,5,18,6,22,0.00,2,,318
2013-11-24,38,23,8,27,15,2,80,62,43,30.62,30.22,29.97,10,10,10,30,19,37,0.00,0,,199
2013-11-25,35,30,25,27,22,19,92,74,56,30.21,30.11,29.95,10,10,10,24,15,31,0.00,5,,309
2013-11-26,27,16,4,18,7,2,88,67,45,30.48,30.41,30.23,10,10,10,26,15,33,T,2,,341
2013-11-27,30,16,2,15,8,1,96,71,46,30.46,30.19,29.98,10,10,4,25,10,32,0.00,0,,177
2013-11-28,25,17,9,16,12,5,84,72,59,30.50,30.36,30.10,10,10,3,24,10,30,T,4,Snow,348
2013-11-29,36,23,9,22,15,5,88,72,56,30.48,30.24,30.06,10,10,10,30,13,37,0.00,0,,169
2013-11-30,38,27,15,25,21,14,92,76,59,30.22,30.15,30.04,10,9,7,14,4,16,0.00,2,,333